Year,Month,Day,Hour,Minute,Value (Times are PST for temperature in C)
2008,03,30,00,00,0.50
2008,03,30,00,01,0.50
2008,03,30,00,02,0.50
2008,03,30,00,03,0.50
2008,03,30,00,04,0.50
2008,03,30,00,05,0.50
2008,03,30,00,06,0.50
2008,03,30,00,07,0.50
2008,03,30,00,08,0.50
2008,03,30,00,09,0.50
2008,03,30,00,10,0.50
2008,03,30,00,11,0.50
2008,03,30,00,12,0.50
2008,03,30,00,13,0.50
2008,03,30,00,14,0.50
2008,03,30,00,15,0.50
2008,03,30,00,16,0.50
2008,03,30,00,17,0.50
2008,03,30,00,18,0.50
2008,03,30,00,19,0.50
2008,03,30,00,20,0.50
2008,03,30,00,21,0.50
2008,03,30,00,22,0.50
2008,03,30,00,23,0.50
2008,03,30,00,24,0.50
2008,03,30,00,25,0.50
2008,03,30,00,26,0.50
2008,03,30,00,27,0.50
2008,03,30,00,28,0.50
2008,03,30,00,29,0.50
2008,03,30,00,30,0.50
2008,03,30,00,31,0.50
2008,03,30,00,32,0.50
2008,03,30,00,33,0.50
2008,03,30,00,34,0.50
2008,03,30,00,35,0.50
2008,03,30,00,36,0.50
2008,03,30,00,37,0.50
2008,03,30,00,38,0.60
2008,03,30,00,39,0.60
2008,03,30,00,40,0.60
2008,03,30,00,41,0.60
2008,03,30,00,42,0.60
2008,03,30,00,43,0.60
2008,03,30,00,44,0.60
2008,03,30,00,45,0.60
2008,03,30,00,46,0.60
2008,03,30,00,47,0.60
2008,03,30,00,48,0.60
2008,03,30,00,49,0.60
2008,03,30,00,50,0.60
2008,03,30,00,51,0.60
2008,03,30,00,52,0.60
2008,03,30,00,53,0.60
2008,03,30,00,54,0.60
2008,03,30,00,55,0.60
2008,03,30,00,56,0.60
2008,03,30,00,57,0.60
2008,03,30,00,58,0.60
2008,03,30,00,59,0.60
2008,03,30,01,00,0.60
2008,03,30,01,01,0.60
2008,03,30,01,02,0.60
2008,03,30,01,03,0.60
2008,03,30,01,04,0.60
2008,03,30,01,05,0.60
2008,03,30,01,06,0.60
2008,03,30,01,07,0.60
2008,03,30,01,08,0.60
2008,03,30,01,09,0.60
2008,03,30,01,10,0.60
2008,03,30,01,11,0.60
2008,03,30,01,12,0.60
2008,03,30,01,13,0.60
2008,03,30,01,14,0.60
2008,03,30,01,15,0.60
2008,03,30,01,16,0.60
2008,03,30,01,17,0.70
2008,03,30,01,18,0.70
2008,03,30,01,19,0.70
2008,03,30,01,20,0.70
2008,03,30,01,21,0.70
2008,03,30,01,22,0.70
2008,03,30,01,23,0.70
2008,03,30,01,24,0.70
2008,03,30,01,25,0.70
2008,03,30,01,26,0.70
2008,03,30,01,27,0.70
2008,03,30,01,28,0.70
2008,03,30,01,29,0.70
2008,03,30,01,30,0.70
2008,03,30,01,31,0.70
2008,03,30,01,32,0.70
2008,03,30,01,33,0.70
2008,03,30,01,34,0.70
2008,03,30,01,35,0.70
2008,03,30,01,36,0.70
2008,03,30,01,37,0.70
2008,03,30,01,38,0.70
2008,03,30,01,39,0.80
2008,03,30,01,40,0.80
2008,03,30,01,41,0.80
2008,03,30,01,42,0.80
2008,03,30,01,43,0.80
2008,03,30,01,44,0.80
2008,03,30,01,45,0.80
2008,03,30,01,46,0.80
2008,03,30,01,47,0.80
2008,03,30,01,48,0.80
2008,03,30,01,49,0.80
2008,03,30,01,50,0.80
2008,03,30,01,51,0.80
2008,03,30,01,52,0.80
2008,03,30,01,53,0.80
2008,03,30,01,54,0.80
2008,03,30,01,55,0.80
2008,03,30,01,56,0.80
2008,03,30,01,57,0.80
2008,03,30,01,58,0.80
2008,03,30,01,59,0.80
2008,03,30,02,00,0.80
2008,03,30,02,01,0.80
2008,03,30,02,02,0.80
2008,03,30,02,03,0.80
2008,03,30,02,04,0.80
2008,03,30,02,05,0.80
2008,03,30,02,06,0.80
2008,03,30,02,07,0.80
2008,03,30,02,08,0.80
2008,03,30,02,09,0.80
2008,03,30,02,10,0.80
2008,03,30,02,11,0.80
2008,03,30,02,12,0.80
2008,03,30,02,13,0.80
2008,03,30,02,14,0.80
2008,03,30,02,15,0.80
2008,03,30,02,16,0.80
2008,03,30,02,17,0.80
2008,03,30,02,18,0.80
2008,03,30,02,19,0.80
2008,03,30,02,20,0.80
2008,03,30,02,21,0.80
2008,03,30,02,22,0.80
2008,03,30,02,23,0.80
2008,03,30,02,24,0.80
2008,03,30,02,25,0.80
2008,03,30,02,26,0.80
2008,03,30,02,27,0.80
2008,03,30,02,28,0.80
2008,03,30,02,29,0.80
2008,03,30,02,30,0.90
2008,03,30,02,31,0.90
2008,03,30,02,32,0.90
2008,03,30,02,33,0.90
2008,03,30,02,34,0.90
2008,03,30,02,35,1.00
2008,03,30,02,36,1.00
2008,03,30,02,37,1.00
2008,03,30,02,38,1.00
2008,03,30,02,39,1.10
2008,03,30,02,40,1.10
2008,03,30,02,41,1.10
2008,03,30,02,42,1.10
2008,03,30,02,43,1.10
2008,03,30,02,44,1.10
2008,03,30,02,45,1.20
2008,03,30,02,46,1.20
2008,03,30,02,47,1.20
2008,03,30,02,48,1.20
2008,03,30,02,49,1.20
2008,03,30,02,50,1.20
2008,03,30,02,51,1.20
2008,03,30,02,52,1.20
2008,03,30,02,53,1.20
2008,03,30,02,54,1.30
2008,03,30,02,55,1.30
2008,03,30,02,56,1.30
2008,03,30,02,57,1.30
2008,03,30,02,58,1.30
2008,03,30,02,59,1.30
2008,03,30,03,00,1.30
2008,03,30,03,01,1.30
2008,03,30,03,02,1.30
2008,03,30,03,03,1.30
2008,03,30,03,04,1.30
2008,03,30,03,05,1.30
2008,03,30,03,06,1.30
2008,03,30,03,07,1.30
2008,03,30,03,08,1.30
2008,03,30,03,09,1.30
2008,03,30,03,10,1.30
2008,03,30,03,11,1.30
2008,03,30,03,12,1.30
2008,03,30,03,13,1.30
2008,03,30,03,14,1.30
2008,03,30,03,15,1.30
2008,03,30,03,16,1.30
2008,03,30,03,17,1.30
2008,03,30,03,18,1.30
2008,03,30,03,19,1.30
2008,03,30,03,20,1.30
2008,03,30,03,21,1.30
2008,03,30,03,22,1.30
2008,03,30,03,23,1.30
2008,03,30,03,24,1.30
2008,03,30,03,25,1.30
2008,03,30,03,26,1.30
2008,03,30,03,27,1.30
2008,03,30,03,28,1.30
2008,03,30,03,29,1.20
2008,03,30,03,30,1.20
2008,03,30,03,31,1.20
2008,03,30,03,32,1.20
2008,03,30,03,33,1.20
2008,03,30,03,34,1.20
2008,03,30,03,35,1.20
2008,03,30,03,36,1.20
2008,03,30,03,37,1.30
2008,03,30,03,38,1.30
2008,03,30,03,39,1.30
2008,03,30,03,40,1.30
2008,03,30,03,41,1.20
2008,03,30,03,42,1.20
2008,03,30,03,43,1.30
2008,03,30,03,44,1.30
2008,03,30,03,45,1.30
2008,03,30,03,46,1.30
2008,03,30,03,47,1.30
2008,03,30,03,48,1.30
2008,03,30,03,49,1.30
2008,03,30,03,50,1.30
2008,03,30,03,51,1.30
2008,03,30,03,52,1.30
2008,03,30,03,53,1.30
2008,03,30,03,54,1.30
2008,03,30,03,55,1.30
2008,03,30,03,56,1.30
2008,03,30,03,57,1.30
2008,03,30,03,58,1.30
2008,03,30,03,59,1.30
2008,03,30,04,00,1.30
2008,03,30,04,01,1.30
2008,03,30,04,02,1.30
2008,03,30,04,03,1.30
2008,03,30,04,04,1.30
2008,03,30,04,05,1.30
2008,03,30,04,06,1.30
2008,03,30,04,07,1.30
2008,03,30,04,08,1.30
2008,03,30,04,09,1.30
2008,03,30,04,10,1.30
2008,03,30,04,11,1.30
2008,03,30,04,12,1.30
2008,03,30,04,13,1.30
2008,03,30,04,14,1.30
2008,03,30,04,15,1.30
2008,03,30,04,16,1.30
2008,03,30,04,17,1.30
2008,03,30,04,18,1.30
2008,03,30,04,19,1.30
2008,03,30,04,20,1.30
2008,03,30,04,21,1.30
2008,03,30,04,22,1.30
2008,03,30,04,23,1.30
2008,03,30,04,24,1.30
2008,03,30,04,25,1.30
2008,03,30,04,26,1.30
2008,03,30,04,27,1.30
2008,03,30,04,28,1.30
2008,03,30,04,29,1.30
2008,03,30,04,30,1.30
2008,03,30,04,31,1.30
2008,03,30,04,32,1.30
2008,03,30,04,33,1.30
2008,03,30,04,34,1.30
2008,03,30,04,35,1.30
2008,03,30,04,36,1.30
2008,03,30,04,37,1.30
2008,03,30,04,38,1.30
2008,03,30,04,39,1.30
2008,03,30,04,40,1.30
2008,03,30,04,41,1.30
2008,03,30,04,42,1.30
2008,03,30,04,43,1.30
2008,03,30,04,44,1.30
2008,03,30,04,45,1.30
2008,03,30,04,46,1.30
2008,03,30,04,47,1.30
2008,03,30,04,48,1.30
2008,03,30,04,49,1.30
2008,03,30,04,50,1.30
2008,03,30,04,51,1.30
2008,03,30,04,52,1.30
2008,03,30,04,53,1.30
2008,03,30,04,54,1.30
2008,03,30,04,55,1.30
2008,03,30,04,56,1.30
2008,03,30,04,57,1.30
2008,03,30,04,58,1.30
2008,03,30,04,59,1.30
2008,03,30,05,00,1.30
2008,03,30,05,01,1.30
2008,03,30,05,02,1.30
2008,03,30,05,03,1.30
2008,03,30,05,04,1.30
2008,03,30,05,05,1.30
2008,03,30,05,06,1.30
2008,03,30,05,07,1.30
2008,03,30,05,08,1.30
2008,03,30,05,09,1.30
2008,03,30,05,10,1.30
2008,03,30,05,11,1.30
2008,03,30,05,12,1.30
2008,03,30,05,13,1.40
2008,03,30,05,14,1.40
2008,03,30,05,15,1.40
2008,03,30,05,16,1.40
2008,03,30,05,17,1.40
2008,03,30,05,18,1.40
2008,03,30,05,19,1.40
2008,03,30,05,20,1.40
2008,03,30,05,21,1.40
2008,03,30,05,22,1.40
2008,03,30,05,23,1.40
2008,03,30,05,24,1.40
2008,03,30,05,25,1.40
2008,03,30,05,26,1.40
2008,03,30,05,27,1.40
2008,03,30,05,28,1.40
2008,03,30,05,29,1.40
2008,03,30,05,30,1.40
2008,03,30,05,31,1.40
2008,03,30,05,32,1.40
2008,03,30,05,33,1.40
2008,03,30,05,34,1.40
2008,03,30,05,35,1.40
2008,03,30,05,36,1.40
2008,03,30,05,37,1.40
2008,03,30,05,38,1.40
2008,03,30,05,39,1.40
2008,03,30,05,40,1.40
2008,03,30,05,41,1.40
2008,03,30,05,42,1.40
2008,03,30,05,43,1.40
2008,03,30,05,44,1.30
2008,03,30,05,45,1.30
2008,03,30,05,46,1.30
2008,03,30,05,47,1.30
2008,03,30,05,48,1.30
2008,03,30,05,49,1.30
2008,03,30,05,50,1.30
2008,03,30,05,51,1.30
2008,03,30,05,52,1.30
2008,03,30,05,53,1.30
2008,03,30,05,54,1.30
2008,03,30,05,55,1.30
2008,03,30,05,56,1.30
2008,03,30,05,57,1.30
2008,03,30,05,58,1.30
2008,03,30,05,59,1.30
2008,03,30,06,00,1.30
2008,03,30,06,01,1.30
2008,03,30,06,02,1.40
2008,03,30,06,03,1.40
2008,03,30,06,04,1.40
2008,03,30,06,05,1.40
2008,03,30,06,06,1.40
2008,03,30,06,07,1.40
2008,03,30,06,08,1.40
2008,03,30,06,09,1.30
2008,03,30,06,10,1.30
2008,03,30,06,11,1.30
2008,03,30,06,12,1.30
2008,03,30,06,13,1.30
2008,03,30,06,14,1.30
2008,03,30,06,15,1.30
2008,03,30,06,16,1.40
2008,03,30,06,17,1.40
2008,03,30,06,18,1.40
2008,03,30,06,19,1.40
2008,03,30,06,20,1.40
2008,03,30,06,21,1.40
2008,03,30,06,22,1.40
2008,03,30,06,23,1.40
2008,03,30,06,24,1.40
2008,03,30,06,25,1.40
2008,03,30,06,26,1.40
2008,03,30,06,27,1.40
2008,03,30,06,28,1.40
2008,03,30,06,29,1.40
2008,03,30,06,30,1.40
2008,03,30,06,31,1.40
2008,03,30,06,32,1.40
2008,03,30,06,33,1.40
2008,03,30,06,34,1.40
2008,03,30,06,35,1.40
2008,03,30,06,36,1.40
2008,03,30,06,37,1.40
2008,03,30,06,38,1.40
2008,03,30,06,39,1.40
2008,03,30,06,40,1.40
2008,03,30,06,41,1.40
2008,03,30,06,42,1.40
2008,03,30,06,43,1.40
2008,03,30,06,44,1.40
2008,03,30,06,45,1.40
2008,03,30,06,46,1.40
2008,03,30,06,47,1.40
2008,03,30,06,48,1.40
2008,03,30,06,49,1.40
2008,03,30,06,50,1.40
2008,03,30,06,51,1.40
2008,03,30,06,52,1.40
2008,03,30,06,53,1.40
2008,03,30,06,54,1.40
2008,03,30,06,55,1.40
2008,03,30,06,56,1.40
2008,03,30,06,57,1.40
2008,03,30,06,58,1.40
2008,03,30,06,59,1.40
2008,03,30,07,00,1.40
2008,03,30,07,01,1.40
2008,03,30,07,02,1.40
2008,03,30,07,03,1.40
2008,03,30,07,04,1.40
2008,03,30,07,05,1.40
2008,03,30,07,06,1.40
2008,03,30,07,07,1.40
2008,03,30,07,08,1.30
2008,03,30,07,09,1.30
2008,03,30,07,10,1.30
2008,03,30,07,11,1.30
2008,03,30,07,12,1.30
2008,03,30,07,13,1.30
2008,03,30,07,14,1.20
2008,03,30,07,15,1.20
2008,03,30,07,16,1.10
2008,03,30,07,17,1.10
2008,03,30,07,18,1.00
2008,03,30,07,19,1.00
2008,03,30,07,20,0.90
2008,03,30,07,21,0.90
2008,03,30,07,22,0.80
2008,03,30,07,23,0.80
2008,03,30,07,24,0.80
2008,03,30,07,25,0.80
2008,03,30,07,26,0.70
2008,03,30,07,27,0.70
2008,03,30,07,28,0.60
2008,03,30,07,29,0.60
2008,03,30,07,30,0.60
2008,03,30,07,31,0.60
2008,03,30,07,32,0.60
2008,03,30,07,33,0.60
2008,03,30,07,34,0.60
2008,03,30,07,35,0.60
2008,03,30,07,36,0.60
2008,03,30,07,37,0.60
2008,03,30,07,38,0.60
2008,03,30,07,39,0.60
2008,03,30,07,40,0.50
2008,03,30,07,41,0.50
2008,03,30,07,42,0.50
2008,03,30,07,43,0.50
2008,03,30,07,44,0.50
2008,03,30,07,45,0.50
2008,03,30,07,46,0.50
2008,03,30,07,47,0.50
2008,03,30,07,48,0.50
2008,03,30,07,49,0.50
2008,03,30,07,50,0.50
2008,03,30,07,51,0.50
2008,03,30,07,52,0.60
2008,03,30,07,53,0.60
2008,03,30,07,54,0.60
2008,03,30,07,55,0.60
2008,03,30,07,56,0.60
2008,03,30,07,57,0.60
2008,03,30,07,58,0.60
2008,03,30,07,59,0.60
2008,03,30,08,00,0.60
2008,03,30,08,01,0.70
2008,03,30,08,02,0.70
2008,03,30,08,03,0.70
2008,03,30,08,04,0.70
2008,03,30,08,05,0.70
2008,03,30,08,06,0.80
2008,03,30,08,07,0.80
2008,03,30,08,08,0.80
2008,03,30,08,09,0.80
2008,03,30,08,10,0.80
2008,03,30,08,11,0.80
2008,03,30,08,12,0.80
2008,03,30,08,13,0.80
2008,03,30,08,14,0.80
2008,03,30,08,15,0.80
2008,03,30,08,16,0.80
2008,03,30,08,17,0.80
2008,03,30,08,18,0.80
2008,03,30,08,19,0.80
2008,03,30,08,20,0.80
2008,03,30,08,21,0.80
2008,03,30,08,22,0.80
2008,03,30,08,23,0.90
2008,03,30,08,24,0.90
2008,03,30,08,25,0.90
2008,03,30,08,26,1.00
2008,03,30,08,27,1.00
2008,03,30,08,28,1.00
2008,03,30,08,29,1.10
2008,03,30,08,30,1.10
2008,03,30,08,31,1.10
2008,03,30,08,32,1.20
2008,03,30,08,33,1.20
2008,03,30,08,34,1.20
2008,03,30,08,35,1.20
2008,03,30,08,36,1.30
2008,03,30,08,37,1.30
2008,03,30,08,38,1.30
2008,03,30,08,39,1.30
2008,03,30,08,40,1.30
2008,03,30,08,41,1.30
2008,03,30,08,42,1.30
2008,03,30,08,43,1.30
2008,03,30,08,44,1.30
2008,03,30,08,45,1.30
2008,03,30,08,46,1.30
2008,03,30,08,47,1.40
2008,03,30,08,48,1.40
2008,03,30,08,49,1.40
2008,03,30,08,50,1.40
2008,03,30,08,51,1.40
2008,03,30,08,52,1.50
2008,03,30,08,53,1.50
2008,03,30,08,54,1.50
2008,03,30,08,55,1.50
2008,03,30,08,56,1.40
2008,03,30,08,57,1.50
2008,03,30,08,58,1.50
2008,03,30,08,59,1.50
2008,03,30,09,00,1.50
2008,03,30,09,01,1.50
2008,03,30,09,02,1.50
2008,03,30,09,03,1.50
2008,03,30,09,04,1.60
2008,03,30,09,05,1.60
2008,03,30,09,06,1.60
2008,03,30,09,07,1.60
2008,03,30,09,08,1.60
2008,03,30,09,09,1.60
2008,03,30,09,10,1.60
2008,03,30,09,11,1.60
2008,03,30,09,12,1.70
2008,03,30,09,13,1.70
2008,03,30,09,14,1.70
2008,03,30,09,15,1.70
2008,03,30,09,16,1.70
2008,03,30,09,17,1.80
2008,03,30,09,18,1.80
2008,03,30,09,19,1.80
2008,03,30,09,20,1.80
2008,03,30,09,21,1.80
2008,03,30,09,22,1.80
2008,03,30,09,23,1.80
2008,03,30,09,24,1.80
2008,03,30,09,25,1.80
2008,03,30,09,26,1.80
2008,03,30,09,27,1.80
2008,03,30,09,28,1.80
2008,03,30,09,29,1.80
2008,03,30,09,30,1.80
2008,03,30,09,31,1.80
2008,03,30,09,32,1.80
2008,03,30,09,33,1.80
2008,03,30,09,34,1.80
2008,03,30,09,35,1.80
2008,03,30,09,36,1.90
2008,03,30,09,37,1.90
2008,03,30,09,38,1.90
2008,03,30,09,39,1.90
2008,03,30,09,40,1.90
2008,03,30,09,41,1.90
2008,03,30,09,42,2.00
2008,03,30,09,43,2.00
2008,03,30,09,44,2.00
2008,03,30,09,45,2.00
2008,03,30,09,46,2.10
2008,03,30,09,47,2.10
2008,03,30,09,48,2.10
2008,03,30,09,49,2.10
2008,03,30,09,50,2.10
2008,03,30,09,51,2.10
2008,03,30,09,52,2.10
2008,03,30,09,53,2.10
2008,03,30,09,54,2.10
2008,03,30,09,55,2.10
2008,03,30,09,56,2.20
2008,03,30,09,57,2.10
2008,03,30,09,58,2.10
2008,03,30,09,59,2.10
2008,03,30,10,00,2.10
2008,03,30,10,01,2.10
2008,03,30,10,02,2.10
2008,03,30,10,03,2.20
2008,03,30,10,04,2.20
2008,03,30,10,05,2.20
2008,03,30,10,06,2.20
2008,03,30,10,07,2.20
2008,03,30,10,08,2.30
2008,03,30,10,09,2.30
2008,03,30,10,10,2.30
2008,03,30,10,11,2.30
2008,03,30,10,12,2.30
2008,03,30,10,13,2.30
2008,03,30,10,14,2.40
2008,03,30,10,15,2.40
2008,03,30,10,16,2.50
2008,03,30,10,17,2.50
2008,03,30,10,18,2.60
2008,03,30,10,19,2.70
2008,03,30,10,20,2.70
2008,03,30,10,21,2.80
2008,03,30,10,22,2.80
2008,03,30,10,23,2.90
2008,03,30,10,24,2.90
2008,03,30,10,25,2.90
2008,03,30,10,26,2.90
2008,03,30,10,27,2.90
2008,03,30,10,28,2.90
2008,03,30,10,29,2.90
2008,03,30,10,30,2.90
2008,03,30,10,31,2.90
2008,03,30,10,32,2.80
2008,03,30,10,33,2.80
2008,03,30,10,34,2.80
2008,03,30,10,35,2.80
2008,03,30,10,36,2.80
2008,03,30,10,37,2.90
2008,03,30,10,38,2.90
2008,03,30,10,39,2.90
2008,03,30,10,40,2.80
2008,03,30,10,41,2.80
2008,03,30,10,42,2.70
2008,03,30,10,43,2.70
2008,03,30,10,44,2.70
2008,03,30,10,45,2.70
2008,03,30,10,46,2.70
2008,03,30,10,47,2.70
2008,03,30,10,48,2.70
2008,03,30,10,49,2.70
2008,03,30,10,50,2.70
2008,03,30,10,51,2.70
2008,03,30,10,52,2.70
2008,03,30,10,53,2.70
2008,03,30,10,54,2.70
2008,03,30,10,55,2.70
2008,03,30,10,56,2.70
2008,03,30,10,57,2.80
2008,03,30,10,58,2.80
2008,03,30,10,59,2.80
2008,03,30,11,00,2.90
2008,03,30,11,01,2.90
2008,03,30,11,02,2.90
2008,03,30,11,03,2.90
2008,03,30,11,04,3.00
2008,03,30,11,05,3.10
2008,03,30,11,06,3.10
2008,03,30,11,07,3.10
2008,03,30,11,08,3.10
2008,03,30,11,09,3.20
2008,03,30,11,10,3.30
2008,03,30,11,11,3.30
2008,03,30,11,12,3.30
2008,03,30,11,13,3.30
2008,03,30,11,14,3.30
2008,03,30,11,15,3.30
2008,03,30,11,16,3.40
2008,03,30,11,17,3.40
2008,03,30,11,18,3.50
2008,03,30,11,19,3.50
2008,03,30,11,20,3.60
2008,03,30,11,21,3.70
2008,03,30,11,22,3.70
2008,03,30,11,23,3.80
2008,03,30,11,24,4.00
2008,03,30,11,25,4.10
2008,03,30,11,26,4.20
2008,03,30,11,27,4.30
2008,03,30,11,28,4.40
2008,03,30,11,29,4.50
2008,03,30,11,30,4.50
2008,03,30,11,31,4.60
2008,03,30,11,32,4.60
2008,03,30,11,33,4.70
2008,03,30,11,34,4.80
2008,03,30,11,35,4.80
2008,03,30,11,36,4.80
2008,03,30,11,37,4.80
2008,03,30,11,38,4.80
2008,03,30,11,39,4.90
2008,03,30,11,40,4.90
2008,03,30,11,41,5.10
2008,03,30,11,42,5.10
2008,03,30,11,43,5.10
2008,03,30,11,44,5.10
2008,03,30,11,45,5.30
2008,03,30,11,46,5.30
2008,03,30,11,47,5.30
2008,03,30,11,48,5.30
2008,03,30,11,49,5.40
2008,03,30,11,50,5.50
2008,03,30,11,51,5.50
2008,03,30,11,52,5.50
2008,03,30,11,53,5.40
2008,03,30,11,54,5.40
2008,03,30,11,55,5.40
2008,03,30,11,56,5.50
2008,03,30,11,57,5.50
2008,03,30,11,58,5.50
2008,03,30,11,59,5.50
2008,03,30,12,00,5.50
2008,03,30,12,01,5.50
2008,03,30,12,02,5.40
2008,03,30,12,03,5.30
2008,03,30,12,04,5.20
2008,03,30,12,05,5.10
2008,03,30,12,06,5.10
2008,03,30,12,07,5.00
2008,03,30,12,08,4.90
2008,03,30,12,09,4.90
2008,03,30,12,10,4.90
2008,03,30,12,11,4.80
2008,03,30,12,12,4.80
2008,03,30,12,13,4.80
2008,03,30,12,14,4.70
2008,03,30,12,15,4.70
2008,03,30,12,16,4.70
2008,03,30,12,17,4.70
2008,03,30,12,18,4.70
2008,03,30,12,19,4.80
2008,03,30,12,20,4.90
2008,03,30,12,21,4.90
2008,03,30,12,22,5.00
2008,03,30,12,23,5.10
2008,03,30,12,24,5.10
2008,03,30,12,25,5.10
2008,03,30,12,26,5.10
2008,03,30,12,27,5.10
2008,03,30,12,28,5.10
2008,03,30,12,29,5.10
2008,03,30,12,30,5.10
2008,03,30,12,31,5.10
2008,03,30,12,32,5.10
2008,03,30,12,33,5.10
2008,03,30,12,34,5.00
2008,03,30,12,35,4.90
2008,03,30,12,36,4.90
2008,03,30,12,37,4.90
2008,03,30,12,38,5.00
2008,03,30,12,39,5.10
2008,03,30,12,40,5.10
2008,03,30,12,41,5.10
2008,03,30,12,42,5.20
2008,03,30,12,43,5.10
2008,03,30,12,44,5.10
2008,03,30,12,45,5.10
2008,03,30,12,46,5.10
2008,03,30,12,47,5.20
2008,03,30,12,48,5.20
2008,03,30,12,49,5.30
2008,03,30,12,50,5.40
2008,03,30,12,51,5.50
2008,03,30,12,52,5.60
2008,03,30,12,53,5.60
2008,03,30,12,54,5.60
2008,03,30,12,55,5.70
2008,03,30,12,56,5.70
2008,03,30,12,57,5.70
2008,03,30,12,58,5.70
2008,03,30,12,59,5.70
2008,03,30,13,00,5.70
2008,03,30,13,01,5.70
2008,03,30,13,02,5.60
2008,03,30,13,03,5.60
2008,03,30,13,04,5.50
2008,03,30,13,05,5.50
2008,03,30,13,06,5.50
2008,03,30,13,07,5.50
2008,03,30,13,08,5.60
2008,03,30,13,09,5.60
2008,03,30,13,10,5.60
2008,03,30,13,11,5.60
2008,03,30,13,12,5.60
2008,03,30,13,13,5.70
2008,03,30,13,14,5.70
2008,03,30,13,15,5.70
2008,03,30,13,16,5.80
2008,03,30,13,17,5.90
2008,03,30,13,18,6.00
2008,03,30,13,19,6.10
2008,03,30,13,20,6.20
2008,03,30,13,21,6.20
2008,03,30,13,22,6.30
2008,03,30,13,23,6.30
2008,03,30,13,24,6.40
2008,03,30,13,25,6.40
2008,03,30,13,26,6.40
2008,03,30,13,27,6.50
2008,03,30,13,28,6.60
2008,03,30,13,29,6.60
2008,03,30,13,30,6.60
2008,03,30,13,31,6.60
2008,03,30,13,32,6.60
2008,03,30,13,33,6.70
2008,03,30,13,34,6.80
2008,03,30,13,35,6.80
2008,03,30,13,36,6.90
2008,03,30,13,37,6.90
2008,03,30,13,38,7.00
2008,03,30,13,39,7.00
2008,03,30,13,40,6.90
2008,03,30,13,41,6.80
2008,03,30,13,42,6.90
2008,03,30,13,43,6.90
2008,03,30,13,44,6.80
2008,03,30,13,45,6.90
2008,03,30,13,46,6.90
2008,03,30,13,47,6.90
2008,03,30,13,48,6.80
2008,03,30,13,49,6.80
2008,03,30,13,50,6.80
2008,03,30,13,51,6.70
2008,03,30,13,52,6.60
2008,03,30,13,53,6.70
2008,03,30,13,54,6.70
2008,03,30,13,55,6.80
2008,03,30,13,56,6.80
2008,03,30,13,57,6.80
2008,03,30,13,58,6.90
2008,03,30,13,59,6.90
2008,03,30,14,00,7.00
2008,03,30,14,01,7.00
2008,03,30,14,02,7.00
2008,03,30,14,03,7.10
2008,03,30,14,04,7.10
2008,03,30,14,05,7.20
2008,03,30,14,06,7.20
2008,03,30,14,07,7.30
2008,03,30,14,08,7.30
2008,03,30,14,09,7.40
2008,03,30,14,10,7.40
2008,03,30,14,11,7.40
2008,03,30,14,12,7.40
2008,03,30,14,13,7.40
2008,03,30,14,14,7.40
2008,03,30,14,15,7.40
2008,03,30,14,16,7.30
2008,03,30,14,17,7.30
2008,03,30,14,18,7.30
2008,03,30,14,19,7.30
2008,03,30,14,20,7.30
2008,03,30,14,21,7.30
2008,03,30,14,22,7.20
2008,03,30,14,23,7.00
2008,03,30,14,24,6.90
2008,03,30,14,25,6.80
2008,03,30,14,26,6.80
2008,03,30,14,27,6.80
2008,03,30,14,28,6.80
2008,03,30,14,29,6.80
2008,03,30,14,30,6.80
2008,03,30,14,31,6.80
2008,03,30,14,32,6.80
2008,03,30,14,33,6.80
2008,03,30,14,34,6.80
2008,03,30,14,35,6.90
2008,03,30,14,36,6.90
2008,03,30,14,37,7.00
2008,03,30,14,38,7.10
2008,03,30,14,39,7.30
2008,03,30,14,40,7.40
2008,03,30,14,41,7.50
2008,03,30,14,42,7.60
2008,03,30,14,43,7.60
2008,03,30,14,44,7.70
2008,03,30,14,45,7.60
2008,03,30,14,46,7.60
2008,03,30,14,47,7.60
2008,03,30,14,48,7.50
2008,03,30,14,49,7.40
2008,03,30,14,50,7.30
2008,03,30,14,51,7.20
2008,03,30,14,52,7.10
2008,03,30,14,53,7.00
2008,03,30,14,54,7.00
2008,03,30,14,55,7.00
2008,03,30,14,56,7.00
2008,03,30,14,57,7.00
2008,03,30,14,58,7.00
2008,03,30,14,59,7.10
2008,03,30,15,00,7.20
2008,03,30,15,01,7.30
2008,03,30,15,02,7.30
2008,03,30,15,03,7.40
2008,03,30,15,04,7.50
2008,03,30,15,05,7.60
2008,03,30,15,06,7.70
2008,03,30,15,07,7.80
2008,03,30,15,08,7.80
2008,03,30,15,09,7.80
2008,03,30,15,10,7.80
2008,03,30,15,11,7.80
2008,03,30,15,12,7.80
2008,03,30,15,13,7.80
2008,03,30,15,14,7.80
2008,03,30,15,15,7.80
2008,03,30,15,16,7.80
2008,03,30,15,17,7.80
2008,03,30,15,18,7.80
2008,03,30,15,19,7.80
2008,03,30,15,20,7.70
2008,03,30,15,21,7.60
2008,03,30,15,22,7.70
2008,03,30,15,23,7.70
2008,03,30,15,24,7.80
2008,03,30,15,25,7.80
2008,03,30,15,26,7.80
2008,03,30,15,27,7.80
2008,03,30,15,28,7.80
2008,03,30,15,29,7.80
2008,03,30,15,30,7.90
2008,03,30,15,31,7.90
2008,03,30,15,32,7.80
2008,03,30,15,33,7.80
2008,03,30,15,34,7.80
2008,03,30,15,35,7.80
2008,03,30,15,36,7.80
2008,03,30,15,37,7.70
2008,03,30,15,38,7.60
2008,03,30,15,39,7.60
2008,03,30,15,40,7.60
2008,03,30,15,41,7.50
2008,03,30,15,42,7.60
2008,03,30,15,43,7.60
2008,03,30,15,44,7.70
2008,03,30,15,45,7.70
2008,03,30,15,46,7.80
2008,03,30,15,47,7.80
2008,03,30,15,48,7.80
2008,03,30,15,49,7.80
2008,03,30,15,50,7.80
2008,03,30,15,51,7.80
2008,03,30,15,52,7.80
2008,03,30,15,53,7.80
2008,03,30,15,54,7.80
2008,03,30,15,55,7.80
2008,03,30,15,56,7.90
2008,03,30,15,57,7.90
2008,03,30,15,58,8.00
2008,03,30,15,59,8.00
2008,03,30,16,00,8.10
2008,03,30,16,01,8.20
2008,03,30,16,02,8.20
2008,03,30,16,03,8.20
2008,03,30,16,04,8.20
2008,03,30,16,05,8.20
2008,03,30,16,06,8.20
2008,03,30,16,07,8.30
2008,03,30,16,08,8.30
2008,03,30,16,09,8.50
2008,03,30,16,10,8.40
2008,03,30,16,11,8.30
2008,03,30,16,12,8.30
2008,03,30,16,13,8.20
2008,03,30,16,14,8.20
2008,03,30,16,15,8.20
2008,03,30,16,16,8.10
2008,03,30,16,17,8.10
2008,03,30,16,18,8.10
2008,03,30,16,19,8.10
2008,03,30,16,20,8.10
2008,03,30,16,21,8.10
2008,03,30,16,22,8.10
2008,03,30,16,23,8.20
2008,03,30,16,24,8.20
2008,03,30,16,25,8.20
2008,03,30,16,26,8.20
2008,03,30,16,27,8.30
2008,03,30,16,28,8.40
2008,03,30,16,29,8.40
2008,03,30,16,30,8.50
2008,03,30,16,31,8.50
2008,03,30,16,32,8.50
2008,03,30,16,33,8.50
2008,03,30,16,34,8.50
2008,03,30,16,35,8.60
2008,03,30,16,36,8.70
2008,03,30,16,37,8.70
2008,03,30,16,38,8.70
2008,03,30,16,39,8.70
2008,03,30,16,40,8.80
2008,03,30,16,41,8.80
2008,03,30,16,42,8.80
2008,03,30,16,43,8.80
2008,03,30,16,44,8.80
2008,03,30,16,45,8.80
2008,03,30,16,46,8.90
2008,03,30,16,47,9.00
2008,03,30,16,48,9.00
2008,03,30,16,49,9.10
2008,03,30,16,50,9.10
2008,03,30,16,51,9.10
2008,03,30,16,52,9.10
2008,03,30,16,53,9.10
2008,03,30,16,54,9.10
2008,03,30,16,55,9.00
2008,03,30,16,56,9.10
2008,03,30,16,57,9.10
2008,03,30,16,58,9.10
2008,03,30,16,59,9.10
2008,03,30,17,00,9.20
2008,03,30,17,01,9.20
2008,03,30,17,02,9.20
2008,03,30,17,03,9.20
2008,03,30,17,04,9.20
2008,03,30,17,05,9.10
2008,03,30,17,06,9.10
2008,03,30,17,07,9.20
2008,03,30,17,08,9.20
2008,03,30,17,09,9.20
2008,03,30,17,10,9.20
2008,03,30,17,11,9.30
2008,03,30,17,12,9.40
2008,03,30,17,13,9.40
2008,03,30,17,14,9.50
2008,03,30,17,15,9.50
2008,03,30,17,16,9.50
2008,03,30,17,17,9.50
2008,03,30,17,18,9.40
2008,03,30,17,19,9.30
2008,03,30,17,20,9.20
2008,03,30,17,21,9.20
2008,03,30,17,22,9.20
2008,03,30,17,23,9.20
2008,03,30,17,24,9.20
2008,03,30,17,25,9.20
2008,03,30,17,26,9.20
2008,03,30,17,27,9.20
2008,03,30,17,28,9.20
2008,03,30,17,29,9.20
2008,03,30,17,30,9.20
2008,03,30,17,31,9.10
2008,03,30,17,32,9.00
2008,03,30,17,33,9.00
2008,03,30,17,34,9.00
2008,03,30,17,35,9.00
2008,03,30,17,36,9.00
2008,03,30,17,37,9.00
2008,03,30,17,38,9.00
2008,03,30,17,39,9.00
2008,03,30,17,40,9.00
2008,03,30,17,41,9.00
2008,03,30,17,42,9.00
2008,03,30,17,43,9.00
2008,03,30,17,44,8.90
2008,03,30,17,45,8.90
2008,03,30,17,46,8.90
2008,03,30,17,47,8.80
2008,03,30,17,48,8.80
2008,03,30,17,49,8.80
2008,03,30,17,50,8.80
2008,03,30,17,51,8.80
2008,03,30,17,52,8.70
2008,03,30,17,53,8.70
2008,03,30,17,54,8.70
2008,03,30,17,55,8.80
2008,03,30,17,56,8.80
2008,03,30,17,57,8.70
2008,03,30,17,58,8.80
2008,03,30,17,59,8.90
2008,03,30,18,00,8.90
2008,03,30,18,01,8.90
2008,03,30,18,02,8.90
2008,03,30,18,03,9.00
2008,03,30,18,04,9.00
2008,03,30,18,05,9.00
2008,03,30,18,06,9.00